Starlink 35712

operational
NORAD ID: 66216 Int'l Des: 2025-244 Owner: SPXS Country: US Constellation: starlink
NOTLE

关于 Starlink 35712

正在加载描述...

实时位置

正在加载3D地球...

即将过境

高度历史

Altitude vs Time

uPlot chart will show altitude changes over time

两行轨道根数

1 66216C 25244K 25301.74076389 .02959300 00000+0 42134-2 0 3013
2 66216 53.1571 134.0775 0010933 274.4430 341.4196 16.01867379 19
Epoch: Oct 28, 2025 • Age: 83 hours

当前状态

高度 212.5 km
速度 7.78 km/s
星下点 -43.40°S, 136.7°W
发射日期 Oct 28, 2025
运行时间 3 days
类型 internet

技术详情

分类 Payload
质量 575.00 kg
干质量 530.00 kg
总质量 575.00 kg
长度 0.30 m
直径 4.10 m
跨度 29.00 m
形状 Box + pan
制造商 SPXS
平台类型 Starlink V2MO
阶段状态 In Orbit
所有者/国家 SPXS/US

大型星座

Loading constellations...